Weather in Zelenyy Bor

Russia / Amur Oblast     49°41′02″N   128°38′13″E
temp.,
°C
wind,
m/s
gust,
m/s
humid.,
%
clouds,
%
prec.,
mm/h
press.,
hPa
HPBL,
m
27 october, wed
wed2700:00+2wnw33830 0.0 101140
03:00+2wsw2285100 0.0 101121
06:00+2ssw2384100 0.0 101037
09:00+4wsw2472100 0.0 1009177
12:00+6nw3367100 0.0 1009715
15:00+7nnw4561100 0.0 1010912
18:00+4nnw5107369 0.0 1013292
21:00+3nnw511855 0.0 1016302
28 october, thu
thu2800:00+1nw39925 0.0 1019216
03:000nw38945 0.0 1021156
06:000nw36930 0.0 1023111
09:00+2wnw34760 0.0 1025190
12:00+7w34550 0.0 1025650
15:00+9wsw45485 0.0 1023804
18:00+5ssw33625 0.0 102420
21:00+3sw34735 0.0 102549
29 october, fri
fri2900:00+2ssw35755 0.0 102569
03:00+2ssw37780 0.0 1024126
06:00+1s47802 0.0 1024117
09:00+4s412673 0.0 1024360
12:00+10ssw6104520 0.0 1022791
15:00+11sw594529 0.0 10201001
18:00+6ssw36635 0.0 102175
21:00+4wsw3671100 0.0 102297
30 october, sat
sat3000:00+4nnw51177100 0.0 1023314
03:00+2nnw61175100 0.0 1025532
06:000nnw71253100 0.0 1028586
09:00−1nnw71243100 0.0 1030634
12:00+2n793193 0.0 1031946
15:00+3n78280 0.0 10311044
18:00−1nnw49410 0.0 1033212
21:00−2nnw410470 0.0 1034259
31 october, sun
sun3100:00−3nnw37490 0.0 1034158
03:00−4nnw34490 0.0 103473
06:00−4nnw23480 0.0 103437
09:00−2nnw22375 0.0 1035178
12:00+2wnw22279 0.0 1034602
15:00+3w11270 0.0 1032686
18:00−1sw11380 0.0 103210
21:00−2sse22395 0.0 103210